Year,Month,Day,Hour,Minute,Value (Times are PST for temperature in C)
2015,06,22,00,00,17.40
2015,06,22,00,01,17.40
2015,06,22,00,02,17.40
2015,06,22,00,03,17.30
2015,06,22,00,04,17.30
2015,06,22,00,05,17.30
2015,06,22,00,06,17.30
2015,06,22,00,07,17.30
2015,06,22,00,08,17.30
2015,06,22,00,09,17.30
2015,06,22,00,10,17.30
2015,06,22,00,11,17.30
2015,06,22,00,12,17.30
2015,06,22,00,13,17.30
2015,06,22,00,14,17.30
2015,06,22,00,15,17.30
2015,06,22,00,16,17.30
2015,06,22,00,17,17.30
2015,06,22,00,18,17.30
2015,06,22,00,19,17.30
2015,06,22,00,20,17.30
2015,06,22,00,21,17.30
2015,06,22,00,22,17.30
2015,06,22,00,23,17.30
2015,06,22,00,24,17.30
2015,06,22,00,25,17.30
2015,06,22,00,26,17.30
2015,06,22,00,27,17.30
2015,06,22,00,28,17.30
2015,06,22,00,29,17.20
2015,06,22,00,30,17.20
2015,06,22,00,31,17.20
2015,06,22,00,32,17.20
2015,06,22,00,33,17.20
2015,06,22,00,34,17.20
2015,06,22,00,35,17.20
2015,06,22,00,36,17.10
2015,06,22,00,37,17.10
2015,06,22,00,38,17.10
2015,06,22,00,39,17.10
2015,06,22,00,40,17.10
2015,06,22,00,41,17.10
2015,06,22,00,42,17.10
2015,06,22,00,43,17.10
2015,06,22,00,44,17.10
2015,06,22,00,45,17.10
2015,06,22,00,46,17.00
2015,06,22,00,47,17.00
2015,06,22,00,48,17.00
2015,06,22,00,49,17.00
2015,06,22,00,50,17.00
2015,06,22,00,51,17.00
2015,06,22,00,52,17.00
2015,06,22,00,53,17.00
2015,06,22,00,54,17.00
2015,06,22,00,55,17.00
2015,06,22,00,56,16.90
2015,06,22,00,57,16.90
2015,06,22,00,58,16.90
2015,06,22,00,59,16.90
2015,06,22,01,00,16.80
2015,06,22,01,01,16.80
2015,06,22,01,02,16.80
2015,06,22,01,03,16.80
2015,06,22,01,04,16.70
2015,06,22,01,05,16.70
2015,06,22,01,06,16.70
2015,06,22,01,07,16.70
2015,06,22,01,08,16.70
2015,06,22,01,09,16.70
2015,06,22,01,10,16.70
2015,06,22,01,11,16.70
2015,06,22,01,12,16.60
2015,06,22,01,13,16.60
2015,06,22,01,14,16.60
2015,06,22,01,15,16.60
2015,06,22,01,16,16.60
2015,06,22,01,17,16.50
2015,06,22,01,18,16.40
2015,06,22,01,19,16.40
2015,06,22,01,20,16.40
2015,06,22,01,21,16.40
2015,06,22,01,22,16.40
2015,06,22,01,23,16.40
2015,06,22,01,24,16.40
2015,06,22,01,25,16.40
2015,06,22,01,26,16.40
2015,06,22,01,27,16.40
2015,06,22,01,28,16.40
2015,06,22,01,29,16.40
2015,06,22,01,30,16.40
2015,06,22,01,31,16.40
2015,06,22,01,32,16.40
2015,06,22,01,33,16.40
2015,06,22,01,34,16.40
2015,06,22,01,35,16.40
2015,06,22,01,36,16.40
2015,06,22,01,37,16.40
2015,06,22,01,38,16.40
2015,06,22,01,39,16.40
2015,06,22,01,40,16.40
2015,06,22,01,41,16.40
2015,06,22,01,42,16.40
2015,06,22,01,43,16.40
2015,06,22,01,44,16.40
2015,06,22,01,45,16.60
2015,06,22,01,46,16.60
2015,06,22,01,47,16.60
2015,06,22,01,48,16.60
2015,06,22,01,49,16.60
2015,06,22,01,50,16.60
2015,06,22,01,51,16.60
2015,06,22,01,52,16.60
2015,06,22,01,53,16.60
2015,06,22,01,54,16.60
2015,06,22,01,55,16.60
2015,06,22,01,56,16.60
2015,06,22,01,57,16.50
2015,06,22,01,58,16.40
2015,06,22,01,59,16.40
2015,06,22,02,00,16.40
2015,06,22,02,01,16.40
2015,06,22,02,02,16.40
2015,06,22,02,03,16.40
2015,06,22,02,04,16.40
2015,06,22,02,05,16.40
2015,06,22,02,06,16.40
2015,06,22,02,07,16.40
2015,06,22,02,08,16.40
2015,06,22,02,09,16.40
2015,06,22,02,10,16.40
2015,06,22,02,11,16.40
2015,06,22,02,12,16.40
2015,06,22,02,13,16.40
2015,06,22,02,14,16.40
2015,06,22,02,15,16.40
2015,06,22,02,16,16.40
2015,06,22,02,17,16.30
2015,06,22,02,18,16.30
2015,06,22,02,19,16.30
2015,06,22,02,20,16.30
2015,06,22,02,21,16.30
2015,06,22,02,22,16.30
2015,06,22,02,23,16.30
2015,06,22,02,24,16.30
2015,06,22,02,25,16.30
2015,06,22,02,26,16.40
2015,06,22,02,27,16.40
2015,06,22,02,28,16.40
2015,06,22,02,29,16.40
2015,06,22,02,30,16.40
2015,06,22,02,31,16.40
2015,06,22,02,32,16.40
2015,06,22,02,33,16.40
2015,06,22,02,34,16.40
2015,06,22,02,35,16.40
2015,06,22,02,36,16.40
2015,06,22,02,37,16.40
2015,06,22,02,38,16.40
2015,06,22,02,39,16.40
2015,06,22,02,40,16.40
2015,06,22,02,41,16.40
2015,06,22,02,42,16.40
2015,06,22,02,43,16.40
2015,06,22,02,44,16.40
2015,06,22,02,45,16.40
2015,06,22,02,46,16.40
2015,06,22,02,47,16.50
2015,06,22,02,48,16.60
2015,06,22,02,49,16.60
2015,06,22,02,50,16.40
2015,06,22,02,51,16.40
2015,06,22,02,52,16.40
2015,06,22,02,53,16.40
2015,06,22,02,54,16.40
2015,06,22,02,55,16.40
2015,06,22,02,56,16.40
2015,06,22,02,57,16.50
2015,06,22,02,58,16.60
2015,06,22,02,59,16.60
2015,06,22,03,00,16.60
2015,06,22,03,01,16.50
2015,06,22,03,02,16.40
2015,06,22,03,03,16.40
2015,06,22,03,04,16.40
2015,06,22,03,05,16.40
2015,06,22,03,06,16.40
2015,06,22,03,07,16.40
2015,06,22,03,08,16.40
2015,06,22,03,09,16.40
2015,06,22,03,10,16.40
2015,06,22,03,11,16.40
2015,06,22,03,12,16.40
2015,06,22,03,13,16.40
2015,06,22,03,14,16.30
2015,06,22,03,15,16.30
2015,06,22,03,16,16.30
2015,06,22,03,17,16.30
2015,06,22,03,18,16.20
2015,06,22,03,19,16.20
2015,06,22,03,20,16.20
2015,06,22,03,21,16.10
2015,06,22,03,22,16.10
2015,06,22,03,23,16.10
2015,06,22,03,24,16.10
2015,06,22,03,25,16.10
2015,06,22,03,26,16.10
2015,06,22,03,27,16.10
2015,06,22,03,28,16.10
2015,06,22,03,29,16.00
2015,06,22,03,30,15.90
2015,06,22,03,31,15.90
2015,06,22,03,32,15.90
2015,06,22,03,33,15.90
2015,06,22,03,34,15.90
2015,06,22,03,35,15.90
2015,06,22,03,36,15.90
2015,06,22,03,37,15.80
2015,06,22,03,38,15.80
2015,06,22,03,39,15.80
2015,06,22,03,40,15.80
2015,06,22,03,41,15.80
2015,06,22,03,42,15.80
2015,06,22,03,43,15.80
2015,06,22,03,44,15.80
2015,06,22,03,45,15.80
2015,06,22,03,46,15.80
2015,06,22,03,47,15.80
2015,06,22,03,48,15.80
2015,06,22,03,49,15.80
2015,06,22,03,50,15.80
2015,06,22,03,51,15.80
2015,06,22,03,52,15.80
2015,06,22,03,53,15.80
2015,06,22,03,54,15.80
2015,06,22,03,55,15.80
2015,06,22,03,56,15.80
2015,06,22,03,57,15.80
2015,06,22,03,58,15.80
2015,06,22,03,59,15.80
2015,06,22,04,00,15.80
2015,06,22,04,01,15.80
2015,06,22,04,02,15.80
2015,06,22,04,03,15.80
2015,06,22,04,04,15.80
2015,06,22,04,05,15.80
2015,06,22,04,06,15.70
2015,06,22,04,07,15.70
2015,06,22,04,08,15.70
2015,06,22,04,09,15.70
2015,06,22,04,10,15.70
2015,06,22,04,11,15.60
2015,06,22,04,12,15.60
2015,06,22,04,13,15.60
2015,06,22,04,14,15.60
2015,06,22,04,15,15.60
2015,06,22,04,16,15.50
2015,06,22,04,17,15.50
2015,06,22,04,18,15.50
2015,06,22,04,19,15.50
2015,06,22,04,20,15.40
2015,06,22,04,21,15.40
2015,06,22,04,22,15.40
2015,06,22,04,23,15.40
2015,06,22,04,24,15.30
2015,06,22,04,25,15.30
2015,06,22,04,26,15.30
2015,06,22,04,27,15.30
2015,06,22,04,28,15.30
2015,06,22,04,29,15.30
2015,06,22,04,30,15.30
2015,06,22,04,31,15.30
2015,06,22,04,32,15.30
2015,06,22,04,33,15.30
2015,06,22,04,34,15.30
2015,06,22,04,35,15.30
2015,06,22,04,36,15.30
2015,06,22,04,37,15.30
2015,06,22,04,38,15.20
2015,06,22,04,39,15.20
2015,06,22,04,40,15.20
2015,06,22,04,41,15.20
2015,06,22,04,42,15.20
2015,06,22,04,43,15.20
2015,06,22,04,44,15.20
2015,06,22,04,45,15.20
2015,06,22,04,46,15.10
2015,06,22,04,47,15.10
2015,06,22,04,48,15.10
2015,06,22,04,49,15.10
2015,06,22,04,50,15.10
2015,06,22,04,51,15.00
2015,06,22,04,52,15.00
2015,06,22,04,53,15.00
2015,06,22,04,54,15.00
2015,06,22,04,55,15.00
2015,06,22,04,56,14.90
2015,06,22,04,57,14.90
2015,06,22,04,58,15.00
2015,06,22,04,59,15.00
2015,06,22,05,00,15.00
2015,06,22,05,01,15.00
2015,06,22,05,02,15.10
2015,06,22,05,03,15.10
2015,06,22,05,04,15.10
2015,06,22,05,05,15.10
2015,06,22,05,06,15.20
2015,06,22,05,07,15.20
2015,06,22,05,08,15.20
2015,06,22,05,09,15.20
2015,06,22,05,10,15.10
2015,06,22,05,11,15.10
2015,06,22,05,12,15.10
2015,06,22,05,13,15.10
2015,06,22,05,14,15.10
2015,06,22,05,15,15.10
2015,06,22,05,16,15.10
2015,06,22,05,17,15.10
2015,06,22,05,18,15.10
2015,06,22,05,19,15.10
2015,06,22,05,20,15.10
2015,06,22,05,21,15.10
2015,06,22,05,22,15.10
2015,06,22,05,23,15.10
2015,06,22,05,24,15.10
2015,06,22,05,25,15.10
2015,06,22,05,26,15.10
2015,06,22,05,27,15.10
2015,06,22,05,28,15.10
2015,06,22,05,29,15.20
2015,06,22,05,30,15.20
2015,06,22,05,31,15.20
2015,06,22,05,32,15.20
2015,06,22,05,33,15.20
2015,06,22,05,34,15.20
2015,06,22,05,35,15.20
2015,06,22,05,36,15.10
2015,06,22,05,37,15.10
2015,06,22,05,38,15.10
2015,06,22,05,39,15.10
2015,06,22,05,40,15.10
2015,06,22,05,41,15.00
2015,06,22,05,42,15.00
2015,06,22,05,43,15.00
2015,06,22,05,44,15.00
2015,06,22,05,45,15.00
2015,06,22,05,46,14.90
2015,06,22,05,47,14.90
2015,06,22,05,48,14.90
2015,06,22,05,49,14.90
2015,06,22,05,50,14.90
2015,06,22,05,51,14.90
2015,06,22,05,52,14.90
2015,06,22,05,53,14.90
2015,06,22,05,54,14.90
2015,06,22,05,55,14.90
2015,06,22,05,56,14.90
2015,06,22,05,57,14.80
2015,06,22,05,58,14.80
2015,06,22,05,59,14.80
2015,06,22,06,00,14.80
2015,06,22,06,01,14.80
2015,06,22,06,02,14.80
2015,06,22,06,03,14.80
2015,06,22,06,04,14.80
2015,06,22,06,05,14.80
2015,06,22,06,06,14.80
2015,06,22,06,07,14.80
2015,06,22,06,08,14.80
2015,06,22,06,09,14.80
2015,06,22,06,10,14.80
2015,06,22,06,11,14.80
2015,06,22,06,12,14.80
2015,06,22,06,13,14.80
2015,06,22,06,14,14.80
2015,06,22,06,15,14.80
2015,06,22,06,16,14.80
2015,06,22,06,17,14.70
2015,06,22,06,18,14.70
2015,06,22,06,19,14.70
2015,06,22,06,20,14.60
2015,06,22,06,21,14.60
2015,06,22,06,22,14.60
2015,06,22,06,23,14.50
2015,06,22,06,24,14.50
2015,06,22,06,25,14.40
2015,06,22,06,26,14.30
2015,06,22,06,27,14.20
2015,06,22,06,28,14.10
2015,06,22,06,29,14.10
2015,06,22,06,30,14.00
2015,06,22,06,31,13.90
2015,06,22,06,32,13.90
2015,06,22,06,33,13.90
2015,06,22,06,34,13.80
2015,06,22,06,35,13.80
2015,06,22,06,36,13.80
2015,06,22,06,37,13.80
2015,06,22,06,38,13.80
2015,06,22,06,39,13.80
2015,06,22,06,40,13.80
2015,06,22,06,41,13.80
2015,06,22,06,42,13.90
2015,06,22,06,43,13.90
2015,06,22,06,44,13.90
2015,06,22,06,45,14.00
2015,06,22,06,46,14.00
2015,06,22,06,47,14.10
2015,06,22,06,48,14.10
2015,06,22,06,49,14.20
2015,06,22,06,50,14.20
2015,06,22,06,51,14.20
2015,06,22,06,52,14.30
2015,06,22,06,53,14.30
2015,06,22,06,54,14.40
2015,06,22,06,55,14.50
2015,06,22,06,56,14.50
2015,06,22,06,57,14.60
2015,06,22,06,58,14.60
2015,06,22,06,59,14.70
2015,06,22,07,00,14.70
2015,06,22,07,01,14.80
2015,06,22,07,02,14.80
2015,06,22,07,03,14.90
2015,06,22,07,04,15.00
2015,06,22,07,05,15.00
2015,06,22,07,06,15.10
2015,06,22,07,07,15.10
2015,06,22,07,08,15.10
2015,06,22,07,09,15.20
2015,06,22,07,10,15.20
2015,06,22,07,11,15.20
2015,06,22,07,12,15.20
2015,06,22,07,13,15.30
2015,06,22,07,14,15.30
2015,06,22,07,15,15.30
2015,06,22,07,16,15.30
2015,06,22,07,17,15.40
2015,06,22,07,18,15.40
2015,06,22,07,19,15.50
2015,06,22,07,20,15.50
2015,06,22,07,21,15.50
2015,06,22,07,22,15.50
2015,06,22,07,23,15.60
2015,06,22,07,24,15.60
2015,06,22,07,25,15.60
2015,06,22,07,26,15.70
2015,06,22,07,27,15.70
2015,06,22,07,28,15.80
2015,06,22,07,29,15.80
2015,06,22,07,30,15.80
2015,06,22,07,31,15.80
2015,06,22,07,32,15.80
2015,06,22,07,33,15.80
2015,06,22,07,34,15.90
2015,06,22,07,35,15.90
2015,06,22,07,36,15.90
2015,06,22,07,37,16.00
2015,06,22,07,38,16.10
2015,06,22,07,39,16.10
2015,06,22,07,40,16.10
2015,06,22,07,41,16.20
2015,06,22,07,42,16.20
2015,06,22,07,43,16.30
2015,06,22,07,44,16.40
2015,06,22,07,45,16.40
2015,06,22,07,46,16.40
2015,06,22,07,47,16.40
2015,06,22,07,48,16.40
2015,06,22,07,49,16.50
2015,06,22,07,50,16.60
2015,06,22,07,51,16.70
2015,06,22,07,52,16.70
2015,06,22,07,53,16.70
2015,06,22,07,54,16.70
2015,06,22,07,55,16.80
2015,06,22,07,56,16.80
2015,06,22,07,57,16.80
2015,06,22,07,58,16.90
2015,06,22,07,59,16.90
2015,06,22,08,00,16.90
2015,06,22,08,01,17.00
2015,06,22,08,02,17.00
2015,06,22,08,03,17.10
2015,06,22,08,04,17.10
2015,06,22,08,05,17.20
2015,06,22,08,06,17.20
2015,06,22,08,07,17.20
2015,06,22,08,08,17.30
2015,06,22,08,09,17.30
2015,06,22,08,10,17.30
2015,06,22,08,11,17.30
2015,06,22,08,12,17.40
2015,06,22,08,13,17.50
2015,06,22,08,14,17.50
2015,06,22,08,15,17.60
2015,06,22,08,16,17.70
2015,06,22,08,17,17.80
2015,06,22,08,18,17.80
2015,06,22,08,19,17.90
2015,06,22,08,20,17.90
2015,06,22,08,21,17.90
2015,06,22,08,22,17.90
2015,06,22,08,23,17.90
2015,06,22,08,24,17.90
2015,06,22,08,25,18.00
2015,06,22,08,26,18.10
2015,06,22,08,27,18.10
2015,06,22,08,28,18.10
2015,06,22,08,29,18.10
2015,06,22,08,30,18.10
2015,06,22,08,31,18.10
2015,06,22,08,32,18.10
2015,06,22,08,33,18.10
2015,06,22,08,34,18.10
2015,06,22,08,35,18.10
2015,06,22,08,36,18.10
2015,06,22,08,37,18.10
2015,06,22,08,38,18.00
2015,06,22,08,39,17.90
2015,06,22,08,40,17.90
2015,06,22,08,41,17.90
2015,06,22,08,42,17.90
2015,06,22,08,43,17.80
2015,06,22,08,44,17.90
2015,06,22,08,45,17.90
2015,06,22,08,46,17.90
2015,06,22,08,47,17.90
2015,06,22,08,48,17.90
2015,06,22,08,49,18.00
2015,06,22,08,50,18.10
2015,06,22,08,51,18.10
2015,06,22,08,52,18.10
2015,06,22,08,53,18.20
2015,06,22,08,54,18.20
2015,06,22,08,55,18.30
2015,06,22,08,56,18.30
2015,06,22,08,57,18.30
2015,06,22,08,58,18.40
2015,06,22,08,59,18.40
2015,06,22,09,00,18.50
2015,06,22,09,01,18.60
2015,06,22,09,02,18.60
2015,06,22,09,03,18.70
2015,06,22,09,04,18.70
2015,06,22,09,05,18.70
2015,06,22,09,06,18.80
2015,06,22,09,07,18.90
2015,06,22,09,08,18.90
2015,06,22,09,09,19.00
2015,06,22,09,10,19.10
2015,06,22,09,11,19.10
2015,06,22,09,12,19.10
2015,06,22,09,13,19.20
2015,06,22,09,14,19.20
2015,06,22,09,15,19.30
2015,06,22,09,16,19.30
2015,06,22,09,17,19.30
2015,06,22,09,18,19.40
2015,06,22,09,19,19.40
2015,06,22,09,20,19.50
2015,06,22,09,21,19.60
2015,06,22,09,22,19.50
2015,06,22,09,23,19.50
2015,06,22,09,24,19.60
2015,06,22,09,25,19.60
2015,06,22,09,26,19.70
2015,06,22,09,27,19.70
2015,06,22,09,28,19.60
2015,06,22,09,29,19.40
2015,06,22,09,30,19.20
2015,06,22,09,31,19.00
2015,06,22,09,32,18.90
2015,06,22,09,33,18.90
2015,06,22,09,34,19.00
2015,06,22,09,35,19.10
2015,06,22,09,36,19.10
2015,06,22,09,37,19.10
2015,06,22,09,38,19.20
2015,06,22,09,39,19.30
2015,06,22,09,40,19.40
2015,06,22,09,41,19.50
2015,06,22,09,42,19.60
2015,06,22,09,43,19.70
2015,06,22,09,44,19.80
2015,06,22,09,45,19.80
2015,06,22,09,46,19.80
2015,06,22,09,47,19.90
2015,06,22,09,48,19.90
2015,06,22,09,49,20.00
2015,06,22,09,50,20.10
2015,06,22,09,51,20.10
2015,06,22,09,52,20.20
2015,06,22,09,53,20.20
2015,06,22,09,54,20.20
2015,06,22,09,55,20.20
2015,06,22,09,56,20.20
2015,06,22,09,57,20.20
2015,06,22,09,58,20.20
2015,06,22,09,59,20.20
2015,06,22,10,00,20.20
2015,06,22,10,01,20.20
2015,06,22,10,02,20.20
2015,06,22,10,03,20.20
2015,06,22,10,04,20.20
2015,06,22,10,05,20.10
2015,06,22,10,06,20.10
2015,06,22,10,07,20.20
2015,06,22,10,08,20.30
2015,06,22,10,09,20.40
2015,06,22,10,10,20.50
2015,06,22,10,11,20.50
2015,06,22,10,12,20.50
2015,06,22,10,13,20.60
2015,06,22,10,14,20.60
2015,06,22,10,15,20.50
2015,06,22,10,16,20.50
2015,06,22,10,17,20.50
2015,06,22,10,18,20.50
2015,06,22,10,19,20.50
2015,06,22,10,20,20.50
2015,06,22,10,21,20.40
2015,06,22,10,22,20.40
2015,06,22,10,23,20.30
2015,06,22,10,24,20.20
2015,06,22,10,25,20.20
2015,06,22,10,26,20.20
2015,06,22,10,27,20.20
2015,06,22,10,28,20.20
2015,06,22,10,29,20.30
2015,06,22,10,30,20.30
2015,06,22,10,31,20.40
2015,06,22,10,32,20.40
2015,06,22,10,33,20.40
2015,06,22,10,34,20.50
2015,06,22,10,35,20.60
2015,06,22,10,36,20.70
2015,06,22,10,37,20.80
2015,06,22,10,38,20.90
2015,06,22,10,39,21.00
2015,06,22,10,40,21.00
2015,06,22,10,41,21.00
2015,06,22,10,42,21.00
2015,06,22,10,43,20.90
2015,06,22,10,44,20.90
2015,06,22,10,45,20.80
2015,06,22,10,46,20.80
2015,06,22,10,47,20.80
2015,06,22,10,48,20.80
2015,06,22,10,49,20.80
2015,06,22,10,50,20.80
2015,06,22,10,51,20.80
2015,06,22,10,52,20.70
2015,06,22,10,53,20.60
2015,06,22,10,54,20.50
2015,06,22,10,55,20.50
2015,06,22,10,56,20.60
2015,06,22,10,57,20.60
2015,06,22,10,58,20.70
2015,06,22,10,59,20.80
2015,06,22,11,00,20.80
2015,06,22,11,01,20.80
2015,06,22,11,02,20.80
2015,06,22,11,03,20.80
2015,06,22,11,04,20.70
2015,06,22,11,05,20.70
2015,06,22,11,06,20.70
2015,06,22,11,07,20.60
2015,06,22,11,08,20.60
2015,06,22,11,09,20.60
2015,06,22,11,10,20.60
2015,06,22,11,11,20.70
2015,06,22,11,12,20.70
2015,06,22,11,13,20.70
2015,06,22,11,14,20.70
2015,06,22,11,15,20.70
2015,06,22,11,16,20.70
2015,06,22,11,17,20.70
2015,06,22,11,18,20.60
2015,06,22,11,19,20.60
2015,06,22,11,20,20.60
2015,06,22,11,21,20.60
2015,06,22,11,22,20.60
2015,06,22,11,23,20.60
2015,06,22,11,24,20.60
2015,06,22,11,25,20.60
2015,06,22,11,26,20.70
2015,06,22,11,27,20.70
2015,06,22,11,28,20.70
2015,06,22,11,29,20.70
2015,06,22,11,30,20.70
2015,06,22,11,31,20.70
2015,06,22,11,32,20.70
2015,06,22,11,33,20.70
2015,06,22,11,34,20.70
2015,06,22,11,35,20.70
2015,06,22,11,36,20.70
2015,06,22,11,37,20.70
2015,06,22,11,38,20.80
2015,06,22,11,39,20.80
2015,06,22,11,40,20.80
2015,06,22,11,41,20.80
2015,06,22,11,42,20.70
2015,06,22,11,43,20.70
2015,06,22,11,44,20.70
2015,06,22,11,45,20.60
2015,06,22,11,46,20.60
2015,06,22,11,47,20.60
2015,06,22,11,48,20.50
2015,06,22,11,49,20.50
2015,06,22,11,50,20.60
2015,06,22,11,51,20.70
2015,06,22,11,52,20.70
2015,06,22,11,53,20.70
2015,06,22,11,54,20.60
2015,06,22,11,55,20.60
2015,06,22,11,56,20.60
2015,06,22,11,57,20.60
2015,06,22,11,58,20.50
2015,06,22,11,59,20.50
2015,06,22,12,00,20.50
2015,06,22,12,01,20.40
2015,06,22,12,02,20.30
2015,06,22,12,03,20.30
2015,06,22,12,04,20.20
2015,06,22,12,05,20.20
2015,06,22,12,06,20.10
2015,06,22,12,07,20.00
2015,06,22,12,08,20.00
2015,06,22,12,09,20.10
2015,06,22,12,10,20.10
2015,06,22,12,11,20.10
2015,06,22,12,12,20.10
2015,06,22,12,13,20.20
2015,06,22,12,14,20.10
2015,06,22,12,15,20.10
2015,06,22,12,16,20.10
2015,06,22,12,17,20.20
2015,06,22,12,18,20.20
2015,06,22,12,19,20.20
2015,06,22,12,20,20.20
2015,06,22,12,21,20.20
2015,06,22,12,22,20.20
2015,06,22,12,23,20.30
2015,06,22,12,24,20.30
2015,06,22,12,25,20.30
2015,06,22,12,26,20.30
2015,06,22,12,27,20.30
2015,06,22,12,28,20.30
2015,06,22,12,29,20.40
2015,06,22,12,30,20.40
2015,06,22,12,31,20.30
2015,06,22,12,32,20.30
2015,06,22,12,33,20.20
2015,06,22,12,34,20.20
2015,06,22,12,35,20.20
2015,06,22,12,36,20.10
2015,06,22,12,37,20.10
2015,06,22,12,38,20.10
2015,06,22,12,39,20.10
2015,06,22,12,40,20.10
2015,06,22,12,41,20.10
2015,06,22,12,42,20.10
2015,06,22,12,43,20.10
2015,06,22,12,44,20.10
2015,06,22,12,45,20.20
2015,06,22,12,46,20.20
2015,06,22,12,47,20.10
2015,06,22,12,48,20.10
2015,06,22,12,49,20.00
2015,06,22,12,50,19.90
2015,06,22,12,51,20.00
2015,06,22,12,52,20.10
2015,06,22,12,53,20.20
2015,06,22,12,54,20.20
2015,06,22,12,55,20.20
2015,06,22,12,56,20.20
2015,06,22,12,57,20.20
2015,06,22,12,58,20.30
2015,06,22,12,59,20.40
2015,06,22,13,00,20.50
2015,06,22,13,01,20.60
2015,06,22,13,02,20.60
2015,06,22,13,03,20.60
2015,06,22,13,04,20.60
2015,06,22,13,05,20.70
2015,06,22,13,06,20.70
2015,06,22,13,07,20.70
2015,06,22,13,08,20.80
2015,06,22,13,09,20.90
2015,06,22,13,10,20.80
2015,06,22,13,11,20.80
2015,06,22,13,12,20.70
2015,06,22,13,13,20.70
2015,06,22,13,14,20.80
2015,06,22,13,15,20.80
2015,06,22,13,16,20.70
2015,06,22,13,17,20.70
2015,06,22,13,18,20.80
2015,06,22,13,19,20.70
2015,06,22,13,20,20.70
2015,06,22,13,21,20.70
2015,06,22,13,22,20.70
2015,06,22,13,23,20.70
2015,06,22,13,24,20.70
2015,06,22,13,25,20.80
2015,06,22,13,26,20.80
2015,06,22,13,27,20.70
2015,06,22,13,28,20.70
2015,06,22,13,29,20.60
2015,06,22,13,30,20.50
2015,06,22,13,31,20.50
2015,06,22,13,32,20.40
2015,06,22,13,33,20.40
2015,06,22,13,34,20.30
2015,06,22,13,35,20.30
2015,06,22,13,36,20.30
2015,06,22,13,37,20.30
2015,06,22,13,38,20.40
2015,06,22,13,39,20.40
2015,06,22,13,40,20.50
2015,06,22,13,41,20.60
2015,06,22,13,42,20.60
2015,06,22,13,43,20.70
2015,06,22,13,44,20.70
2015,06,22,13,45,20.80
2015,06,22,13,46,20.80
2015,06,22,13,47,20.80
2015,06,22,13,48,20.80
2015,06,22,13,49,20.90
2015,06,22,13,50,20.90
2015,06,22,13,51,20.90
2015,06,22,13,52,20.90
2015,06,22,13,53,20.90
2015,06,22,13,54,21.00
2015,06,22,13,55,21.00
2015,06,22,13,56,21.00
2015,06,22,13,57,21.00
2015,06,22,13,58,21.00
2015,06,22,13,59,21.00
2015,06,22,14,00,21.00
2015,06,22,14,01,21.00
2015,06,22,14,02,20.90
2015,06,22,14,03,20.90
2015,06,22,14,04,20.90
2015,06,22,14,05,20.90
2015,06,22,14,06,21.00
2015,06,22,14,07,21.00
2015,06,22,14,08,21.00
2015,06,22,14,09,21.00
2015,06,22,14,10,21.10
2015,06,22,14,11,21.10
2015,06,22,14,12,21.20
2015,06,22,14,13,21.20
2015,06,22,14,14,21.30
2015,06,22,14,15,21.30
2015,06,22,14,16,21.30
2015,06,22,14,17,21.30
2015,06,22,14,18,21.30
2015,06,22,14,19,21.30
2015,06,22,14,20,21.30
2015,06,22,14,21,21.30
2015,06,22,14,22,21.30
2015,06,22,14,23,21.40
2015,06,22,14,24,21.40
2015,06,22,14,25,21.30
2015,06,22,14,26,21.30
2015,06,22,14,27,21.30
2015,06,22,14,28,21.30
2015,06,22,14,29,21.30
2015,06,22,14,30,21.30
2015,06,22,14,31,21.30
2015,06,22,14,32,21.30
2015,06,22,14,33,21.30
2015,06,22,14,34,21.30
2015,06,22,14,35,21.50
2015,06,22,14,36,21.60
2015,06,22,14,37,21.80
2015,06,22,14,38,22.00
2015,06,22,14,39,22.00
2015,06,22,14,40,22.10
2015,06,22,14,41,22.10
2015,06,22,14,42,22.10
2015,06,22,14,43,22.20
2015,06,22,14,44,22.20
2015,06,22,14,45,22.10
2015,06,22,14,46,22.10
2015,06,22,14,47,22.10
2015,06,22,14,48,22.10
2015,06,22,14,49,22.10
2015,06,22,14,50,22.10
2015,06,22,14,51,22.10
2015,06,22,14,52,22.20
2015,06,22,14,53,22.20
2015,06,22,14,54,22.20
2015,06,22,14,55,22.20
2015,06,22,14,56,22.30
2015,06,22,14,57,22.30
2015,06,22,14,58,22.40
2015,06,22,14,59,22.50
2015,06,22,15,00,22.50
2015,06,22,15,01,22.60
2015,06,22,15,02,22.60
2015,06,22,15,03,22.60
2015,06,22,15,04,22.60
2015,06,22,15,05,22.60
2015,06,22,15,06,22.60
2015,06,22,15,07,22.70
2015,06,22,15,08,22.80
2015,06,22,15,09,22.80
2015,06,22,15,10,22.80
2015,06,22,15,11,22.80
2015,06,22,15,12,22.80
2015,06,22,15,13,22.80
2015,06,22,15,14,22.80
2015,06,22,15,15,22.90
2015,06,22,15,16,22.90
2015,06,22,15,17,22.90
2015,06,22,15,18,23.00
2015,06,22,15,19,23.10
2015,06,22,15,20,23.10
2015,06,22,15,21,23.20
2015,06,22,15,22,23.20
2015,06,22,15,23,23.10
2015,06,22,15,24,23.10
2015,06,22,15,25,23.00
2015,06,22,15,26,22.90
2015,06,22,15,27,22.90
2015,06,22,15,28,22.80
2015,06,22,15,29,22.70
2015,06,22,15,30,22.60
2015,06,22,15,31,22.60
2015,06,22,15,32,22.40
2015,06,22,15,33,22.20
2015,06,22,15,34,22.20
2015,06,22,15,35,22.10
2015,06,22,15,36,22.00
2015,06,22,15,37,22.00
2015,06,22,15,38,21.90
2015,06,22,15,39,21.90
2015,06,22,15,40,21.80
2015,06,22,15,41,21.90
2015,06,22,15,42,21.90
2015,06,22,15,43,21.90
2015,06,22,15,44,22.00
2015,06,22,15,45,22.00
2015,06,22,15,46,22.00
2015,06,22,15,47,22.10
2015,06,22,15,48,22.20
2015,06,22,15,49,22.20
2015,06,22,15,50,22.30
2015,06,22,15,51,22.40
2015,06,22,15,52,22.50
2015,06,22,15,53,22.60
2015,06,22,15,54,22.70
2015,06,22,15,55,22.70
2015,06,22,15,56,22.80
2015,06,22,15,57,22.80
2015,06,22,15,58,22.90
2015,06,22,15,59,23.10
2015,06,22,16,00,23.20
2015,06,22,16,01,23.30
2015,06,22,16,02,23.30
2015,06,22,16,03,23.30
2015,06,22,16,04,23.30
2015,06,22,16,05,23.30
2015,06,22,16,06,23.20
2015,06,22,16,07,23.10
2015,06,22,16,08,23.00
2015,06,22,16,09,22.90
2015,06,22,16,10,22.80
2015,06,22,16,11,22.70
2015,06,22,16,12,22.70
2015,06,22,16,13,22.70
2015,06,22,16,14,22.70
2015,06,22,16,15,22.70
2015,06,22,16,16,22.60
2015,06,22,16,17,22.60
2015,06,22,16,18,22.60
2015,06,22,16,19,22.60
2015,06,22,16,20,22.50
2015,06,22,16,21,22.50
2015,06,22,16,22,22.50
2015,06,22,16,23,22.60
2015,06,22,16,24,22.60
2015,06,22,16,25,22.70
2015,06,22,16,26,22.80
2015,06,22,16,27,22.90
2015,06,22,16,28,23.10
2015,06,22,16,29,23.30
2015,06,22,16,30,23.40
2015,06,22,16,31,23.60
2015,06,22,16,32,23.70
2015,06,22,16,33,23.80
2015,06,22,16,34,24.00
2015,06,22,16,35,24.10
2015,06,22,16,36,24.20
2015,06,22,16,37,24.40
2015,06,22,16,38,24.50
2015,06,22,16,39,24.50
2015,06,22,16,40,24.50
2015,06,22,16,41,24.50
2015,06,22,16,42,24.50
2015,06,22,16,43,24.40
2015,06,22,16,44,24.40
2015,06,22,16,45,24.20
2015,06,22,16,46,24.10
2015,06,22,16,47,24.10
2015,06,22,16,48,24.10
2015,06,22,16,49,24.10
2015,06,22,16,50,23.90
2015,06,22,16,51,23.90
2015,06,22,16,52,23.80
2015,06,22,16,53,23.70
2015,06,22,16,54,23.70
2015,06,22,16,55,23.80
2015,06,22,16,56,23.80
2015,06,22,16,57,23.80
2015,06,22,16,58,23.80
2015,06,22,16,59,23.80
2015,06,22,17,00,23.90
2015,06,22,17,01,23.80
2015,06,22,17,02,23.80
2015,06,22,17,03,23.80
2015,06,22,17,04,23.90
2015,06,22,17,05,23.90
2015,06,22,17,06,23.90
2015,06,22,17,07,23.70
2015,06,22,17,08,23.70
2015,06,22,17,09,23.60
2015,06,22,17,10,23.40
2015,06,22,17,11,23.40
2015,06,22,17,12,23.50
2015,06,22,17,13,23.40
2015,06,22,17,14,23.40
2015,06,22,17,15,23.60
2015,06,22,17,16,23.60
2015,06,22,17,17,23.60
2015,06,22,17,18,23.60
2015,06,22,17,19,23.40